Dades meteomassalio
Diari Summary for Marc 9, 2017 Units:  English    Metric   Both
« Previous Day
Next Day »
Diari Semanal Mensual Anual Personalitzat
  Maxima: Minima: Mijana:
Temperatura: TemperatureC °F 4.8 °F 15.3 °F
Rosada: DewpointC °F 3.0 °F 6.5 °F
Humitat: Humidity % 26 % 61 %
Velocitat del vent: WindSpeedKMH mph 0.0 mph 3.8 mph
Racha vent: WindSpeedGustKMH mph - -
Vent:- - WNW
Pressio: PressurehPa in 1022.2 in -
Pluja: 0.0 in    
Historical Graphs
 
 
Tabular Data for Marc 9, 2017
Time Temperature Dew Point Pressure Wind Wind Speed Wind Gust Humidity Rainfall Rate (Hourly) solar Conditions
TemperatureC °F DewpointC °F PressurehPa in Calm     Humidity % HourlyPrecipMM in SolarRadiationWatts/m^2 W/m2 Conditions
00:02 8.9 °F 6.5 °F 1027.3 in Calm     85 % 0.0 in 0.0 W/m2 CLR
00:07 8.9 °F 6.4 °F 1027.0 in Calm     84 % 0.0 in 0.0 W/m2 CLR
00:12 9.0 °F 6.6 °F 1027.3 in Calm     85 % 0.0 in 0.0 W/m2 CLR
00:17 9.1 °F 6.5 °F 1027.3 in Calm     84 % 0.0 in 0.0 W/m2 CLR
00:22 9.0 °F 6.4 °F 1027.3 in Calm     84 % 0.0 in 0.0 W/m2 CLR
00:27 8.9 °F 6.3 °F 1027.3 in Calm     84 % 0.0 in 0.0 W/m2 CLR
00:32 8.8 °F 6.3 °F 1027.3 in Calm     84 % 0.0 in 0.0 W/m2 CLR
00:37 8.7 °F 6.2 °F 1027.3 in Calm     84 % 0.0 in 0.0 W/m2 CLR
00:42 8.6 °F 6.1 °F 1027.3 in Calm     84 % 0.0 in 0.0 W/m2 CLR
00:47 8.5 °F 5.9 °F 1027.3 in Calm     84 % 0.0 in 0.0 W/m2 CLR
00:52 8.4 °F 5.9 °F 1027.3 in Calm     84 % 0.0 in 0.0 W/m2 CLR
00:57 8.4 °F 5.8 °F 1027.3 in Calm     84 % 0.0 in 0.0 W/m2 CLR
01:02 8.5 °F 5.8 °F 1027.3 in SW 5.6 mph   83 % 0.0 in 0.0 W/m2 CLR
01:07 8.5 °F 5.8 °F 1027.3 in Calm     83 % 0.0 in 0.0 W/m2 CLR
01:12 8.4 °F 5.7 °F 1027.3 in Calm     83 % 0.0 in 0.0 W/m2 CLR
01:17 8.3 °F 5.6 °F 1027.3 in Calm     83 % 0.0 in 0.0 W/m2 CLR
01:22 8.2 °F 5.5 °F 1027.3 in Calm     83 % 0.0 in 0.0 W/m2 CLR
01:27 8.2 °F 5.4 °F 1027.3 in Calm     83 % 0.0 in 0.0 W/m2 CLR
01:32 8.0 °F 5.3 °F 1027.3 in Calm     83 % 0.0 in 0.0 W/m2 CLR
01:37 7.8 °F 5.1 °F 1027.3 in Calm     83 % 0.0 in 0.0 W/m2 CLR
01:42 7.6 °F 5.0 °F 1027.3 in Calm     84 % 0.0 in 0.0 W/m2 CLR
01:47 7.4 °F 4.8 °F 1027.3 in Calm     84 % 0.0 in 0.0 W/m2 CLR
01:52 7.3 °F 5.0 °F 1027.3 in Calm     85 % 0.0 in 0.0 W/m2 CLR
01:57 7.4 °F 4.7 °F 1027.3 in SW 7.4 mph 7.4 mph 83 % 0.0 in 0.0 W/m2 CLR
02:02 7.7 °F 4.8 °F 1027.3 in SW 6.4 mph 6.4 mph 82 % 0.0 in 0.0 W/m2 CLR
02:08 7.8 °F 4.8 °F 1027.3 in Calm     81 % 0.0 in 0.0 W/m2 CLR
02:13 7.8 °F 4.7 °F 1027.3 in Calm     81 % 0.0 in 0.0 W/m2 CLR
02:18 7.7 °F 4.7 °F 1027.3 in Calm     81 % 0.0 in 0.0 W/m2 CLR
02:23 7.7 °F 4.6 °F 1027.3 in Calm     81 % 0.0 in 0.0 W/m2 CLR
02:28 7.6 °F 4.7 °F 1027.3 in Calm     82 % 0.0 in 0.0 W/m2 CLR
02:33 7.3 °F 4.4 °F 1027.3 in Calm     82 % 0.0 in 0.0 W/m2 CLR
02:38 7.2 °F 4.4 °F 1027.3 in Calm     83 % 0.0 in 0.0 W/m2 CLR
02:43 7.0 °F 4.5 °F 1027.3 in Calm     84 % 0.0 in 0.0 W/m2 CLR
02:48 6.9 °F 4.4 °F 1027.3 in Calm     84 % 0.0 in 0.0 W/m2 CLR
02:53 6.8 °F 4.3 °F 1027.3 in Calm     84 % 0.0 in 0.0 W/m2 CLR
02:58 6.7 °F 4.2 °F 1027.0 in Calm     84 % 0.0 in 0.0 W/m2 CLR
03:03 6.7 °F 4.2 °F 1027.0 in Calm     84 % 0.0 in 0.0 W/m2 CLR
03:08 6.7 °F 4.2 °F 1027.3 in Calm     84 % 0.0 in 0.0 W/m2 CLR
03:13 6.6 °F 4.1 °F 1027.3 in Calm     84 % 0.0 in 0.0 W/m2 CLR
03:18 6.4 °F 3.9 °F 1027.0 in Calm     84 % 0.0 in 0.0 W/m2 CLR
03:23 6.4 °F 4.1 °F 1027.0 in SW 5.6 mph   85 % 0.0 in 0.0 W/m2 CLR
03:28 6.4 °F 4.1 °F 1027.0 in SW 5.6 mph 5.6 mph 85 % 0.0 in 0.0 W/m2 CLR
03:33 6.4 °F 4.1 °F 1027.0 in Calm     85 % 0.0 in 0.0 W/m2 CLR
03:38 6.3 °F 4.0 °F 1027.0 in Calm     85 % 0.0 in 0.0 W/m2 CLR
03:43 6.3 °F 3.9 °F 1027.0 in SW 5.6 mph 5.6 mph 85 % 0.0 in 0.0 W/m2 CLR
03:48 6.4 °F 4.1 °F 1027.0 in WSW 1.9 mph 1.9 mph 85 % 0.0 in 0.0 W/m2 CLR
03:53 6.3 °F 3.8 °F 1027.0 in Calm     84 % 0.0 in 0.0 W/m2 CLR
03:58 6.3 °F 3.9 °F 1027.0 in Calm     85 % 0.0 in 0.0 W/m2 CLR
04:03 6.3 °F 3.9 °F 1027.0 in Calm     85 % 0.0 in 0.0 W/m2 CLR
04:08 6.4 °F 4.1 °F 1027.0 in Calm     85 % 0.0 in 0.0 W/m2 CLR
04:13 6.4 °F 3.9 °F 1027.0 in Calm     84 % 0.0 in 0.0 W/m2 CLR
04:18 6.3 °F 3.8 °F 1027.0 in Calm     84 % 0.0 in 0.0 W/m2 CLR
04:23 6.2 °F 3.9 °F 1027.0 in Calm     85 % 0.0 in 0.0 W/m2 CLR
04:28 6.2 °F 3.9 °F 1027.0 in SW 5.6 mph 5.6 mph 85 % 0.0 in 0.0 W/m2 CLR
04:33 6.3 °F 3.9 °F 1027.0 in Calm     85 % 0.0 in 0.0 W/m2 CLR
04:38 6.3 °F 3.8 °F 1027.0 in Calm     84 % 0.0 in 0.0 W/m2 CLR
04:43 6.1 °F 3.6 °F 1026.6 in Calm     84 % 0.0 in 0.0 W/m2 CLR
04:48 6.0 °F 3.7 °F 1027.0 in Calm     85 % 0.0 in 0.0 W/m2 CLR
04:53 5.8 °F 3.5 °F 1026.6 in Calm     85 % 0.0 in 0.0 W/m2 CLR
04:58 5.7 °F 3.4 °F 1027.0 in Calm     85 % 0.0 in 0.0 W/m2 CLR
05:00 5.7 °F 3.6 °F 1026.6 in Calm     86 % 0.0 in 0.0 W/m2 CLR
05:05 5.7 °F 3.5 °F 1027.0 in SW 5.6 mph   86 % 0.0 in 0.0 W/m2 CLR
05:10 5.7 °F 3.6 °F 1027.0 in Calm     86 % 0.0 in 0.0 W/m2 CLR
05:15 5.8 °F 3.6 °F 1027.0 in Calm     86 % 0.0 in 0.0 W/m2 CLR
05:20 5.8 °F 3.6 °F 1027.0 in Calm     86 % 0.0 in 0.0 W/m2 CLR
05:25 5.8 °F 3.6 °F 1027.0 in Calm     86 % 0.0 in 0.0 W/m2 CLR
05:30 5.6 °F 3.4 °F 1027.0 in Calm     86 % 0.0 in 0.0 W/m2 CLR
05:35 5.4 °F 3.3 °F 1027.0 in Calm     86 % 0.0 in 0.0 W/m2 CLR
05:40 5.4 °F 3.2 °F 1027.0 in Calm     86 % 0.0 in 0.0 W/m2 CLR
05:45 5.4 °F 3.4 °F 1027.0 in Calm     87 % 0.0 in 0.0 W/m2 CLR
05:50 5.4 °F 3.4 °F 1027.0 in Calm     87 % 0.0 in 0.0 W/m2 CLR
05:55 5.6 °F 3.6 °F 1027.0 in Calm     87 % 0.0 in 0.0 W/m2 CLR
06:00 5.7 °F 3.5 °F 1027.0 in Calm     86 % 0.0 in 0.0 W/m2 CLR
06:05 5.6 °F 3.4 °F 1027.0 in Calm     86 % 0.0 in 0.0 W/m2 CLR
06:10 5.6 °F 3.4 °F 1027.0 in Calm     86 % 0.0 in 0.0 W/m2 CLR
06:15 5.4 °F 3.3 °F 1027.0 in Calm     86 % 0.0 in 0.0 W/m2 CLR
06:20 5.3 °F 3.2 °F 1027.0 in Calm     86 % 0.0 in 0.0 W/m2 CLR
06:25 5.3 °F 3.3 °F 1027.0 in Calm     87 % 0.0 in 0.0 W/m2 CLR
06:30 5.2 °F 3.2 °F 1027.0 in Calm     87 % 0.0 in 0.0 W/m2 CLR
06:35 5.2 °F 3.2 °F 1027.0 in Calm     87 % 0.0 in 0.0 W/m2 CLR
06:40 5.2 °F 3.3 °F 1027.0 in Calm     88 % 0.0 in 0.0 W/m2 CLR
06:45 5.2 °F 3.4 °F 1027.0 in Calm     88 % 0.0 in 0.0 W/m2 CLR
06:50 5.2 °F 3.4 °F 1027.0 in Calm     88 % 0.0 in 0.0 W/m2 CLR
06:55 5.2 °F 3.3 °F 1027.0 in Calm     88 % 0.0 in 0.0 W/m2 CLR
07:00 5.1 °F 3.3 °F 1027.0 in Calm     88 % 0.0 in 0.0 W/m2 CLR
07:05 5.1 °F 3.1 °F 1027.0 in Calm     87 % 0.0 in 0.0 W/m2 CLR
07:10 4.9 °F 3.1 °F 1027.3 in Calm     88 % 0.0 in 0.0 W/m2 CLR
07:15 4.8 °F 3.0 °F 1027.3 in Calm     88 % 0.0 in 0.0 W/m2 OVC
07:20 4.8 °F 3.0 °F 1027.3 in Calm     88 % 0.0 in 0.0 W/m2 OVC
07:25 4.8 °F 3.0 °F 1027.3 in Calm     88 % 0.0 in 5.0 W/m2 OVC
07:30 4.8 °F 3.0 °F 1027.3 in Calm     88 % 0.0 in 7.0 W/m2 BKN
07:35 4.8 °F 3.2 °F 1027.3 in Calm     89 % 0.0 in 11.0 W/m2 BKN
07:40 4.9 °F 3.2 °F 1027.3 in Calm     89 % 0.0 in 12.0 W/m2 BKN
07:45 4.9 °F 3.1 °F 1027.3 in Calm     88 % 0.0 in 16.0 W/m2 BKN
07:50 5.1 °F 3.4 °F 1027.3 in Calm     89 % 0.0 in 23.0 W/m2 BKN
07:55 5.2 °F 3.4 °F 1027.7 in Calm     88 % 0.0 in 33.0 W/m2 BKN
08:00 5.4 °F 3.6 °F 1027.7 in Calm     88 % 0.0 in 54.0 W/m2 SCT
08:05 5.7 °F 3.8 °F 1027.7 in Calm     88 % 0.0 in 65.0 W/m2 SCT
08:10 5.9 °F 3.9 °F 1027.7 in Calm     87 % 0.0 in 76.0 W/m2 FEW
08:15 6.1 °F 4.1 °F 1027.7 in Calm     87 % 0.0 in 67.0 W/m2 FEW
08:20 6.6 °F 4.7 °F 1027.7 in Calm     88 % 0.0 in 97.0 W/m2 CLR
08:25 7.1 °F 5.1 °F 1027.7 in Calm     87 % 0.0 in 111.0 W/m2 CLR
08:30 7.7 °F 5.3 °F 1027.7 in Calm     85 % 0.0 in 134.0 W/m2 CLR
08:35 8.2 °F 5.5 °F 1027.7 in Calm     83 % 0.0 in 104.0 W/m2 CLR
08:40 8.8 °F 5.9 °F 1028.0 in Calm     82 % 0.0 in 178.0 W/m2 CLR
08:45 9.4 °F 6.1 °F 1028.0 in Calm     80 % 0.0 in 193.0 W/m2 CLR
08:50 9.9 °F 6.3 °F 1028.0 in Calm     78 % 0.0 in 214.0 W/m2 CLR
08:55 10.4 °F 6.3 °F 1028.0 in Calm     76 % 0.0 in 232.0 W/m2 CLR
09:00 10.8 °F 6.3 °F 1027.7 in Calm     74 % 0.0 in 253.0 W/m2 CLR
09:05 11.0 °F 6.3 °F 1027.7 in Calm     73 % 0.0 in 269.0 W/m2 CLR
09:10 11.3 °F 6.4 °F 1027.7 in Calm     72 % 0.0 in 285.0 W/m2 CLR
09:15 11.7 °F 6.8 °F 1027.7 in Calm     72 % 0.0 in 299.0 W/m2 CLR
09:20 12.2 °F 6.8 °F 1027.7 in Calm     70 % 0.0 in 313.0 W/m2 CLR
09:25 12.6 °F 6.8 °F 1027.7 in Calm     68 % 0.0 in 330.0 W/m2 CLR
09:30 13.0 °F 7.0 °F 1027.7 in Calm     67 % 0.0 in 348.0 W/m2 CLR
09:35 13.5 °F 7.1 °F 1027.7 in Calm     65 % 0.0 in 364.0 W/m2 CLR
09:40 13.7 °F 7.1 °F 1027.7 in Calm     64 % 0.0 in 380.0 W/m2 CLR
09:45 14.1 °F 6.9 °F 1027.3 in Calm     62 % 0.0 in 392.0 W/m2 CLR
09:50 14.7 °F 7.5 °F 1027.3 in Calm     62 % 0.0 in 408.0 W/m2 CLR
09:55 15.3 °F 7.6 °F 1027.3 in Calm     60 % 0.0 in 424.0 W/m2 CLR
10:00 15.8 °F 7.5 °F 1027.3 in Calm     58 % 0.0 in 431.0 W/m2 CLR
10:05 16.1 °F 7.6 °F 1027.3 in Calm     57 % 0.0 in 445.0 W/m2 CLR
10:11 16.4 °F 7.6 °F 1027.3 in Calm     56 % 0.0 in 466.0 W/m2 CLR
10:16 16.8 °F 8.2 °F 1027.3 in Calm     57 % 0.0 in 478.0 W/m2 CLR
10:21 17.3 °F 8.4 °F 1027.3 in Calm     56 % 0.0 in 490.0 W/m2 CLR
10:26 17.8 °F 8.3 °F 1027.3 in Calm     54 % 0.0 in 504.0 W/m2 CLR
10:31 18.2 °F 8.2 °F 1027.0 in Calm     52 % 0.0 in 508.0 W/m2 CLR
10:36 18.6 °F 8.6 °F 1027.0 in Calm     52 % 0.0 in 533.0 W/m2 CLR
10:41 19.1 °F 8.7 °F 1027.0 in Calm     51 % 0.0 in 543.0 W/m2 CLR
10:46 19.6 °F 7.7 °F 1027.0 in WNW 3.2 mph 3.2 mph 46 % 0.0 in 555.0 W/m2 CLR
10:51 20.1 °F 7.7 °F 1027.0 in WNW 1.9 mph 1.9 mph 45 % 0.0 in 554.0 W/m2 CLR
10:56 20.4 °F 8.4 °F 1027.0 in NW 6.4 mph 6.4 mph 46 % 0.0 in 584.0 W/m2 CLR
11:01 20.3 °F 8.0 °F 1027.0 in NW 7.4 mph 7.4 mph 45 % 0.0 in 591.0 W/m2 CLR
11:06 20.3 °F 7.3 °F 1026.6 in NNW 13.0 mph 13.0 mph 43 % 0.0 in 596.0 W/m2 CLR
11:11 20.3 °F 7.0 °F 1026.6 in NW 5.6 mph 5.6 mph 42 % 0.0 in 612.0 W/m2 CLR
11:16 20.5 °F 7.2 °F 1026.6 in NW 5.6 mph 5.6 mph 42 % 0.0 in 612.0 W/m2 CLR
11:21 20.8 °F 7.4 °F 1026.6 in NNW 11.1 mph 11.1 mph 42 % 0.0 in 629.0 W/m2 CLR
11:26 21.0 °F 6.9 °F 1026.3 in WNW 5.6 mph 5.6 mph 40 % 0.0 in 636.0 W/m2 CLR
11:31 21.2 °F 7.0 °F 1026.3 in Calm     40 % 0.0 in 621.0 W/m2 CLR
11:36 21.5 °F 7.3 °F 1026.3 in NW 3.7 mph 3.7 mph 40 % 0.0 in 647.0 W/m2 CLR
11:41 21.7 °F 6.4 °F 1026.3 in Calm     37 % 0.0 in 671.0 W/m2 CLR
11:46 21.9 °F 7.3 °F 1026.3 in NW 11.3 mph 11.3 mph 39 % 0.0 in 612.0 W/m2 CLR
11:51 22.1 °F 7.1 °F 1026.3 in NW 11.1 mph 11.1 mph 38 % 0.0 in 575.0 W/m2 CLR
11:56 22.2 °F 7.2 °F 1026.3 in NNW 13.0 mph 13.0 mph 38 % 0.0 in 698.0 W/m2 CLR
12:01 22.3 °F 7.3 °F 1026.0 in NW 14.8 mph 14.8 mph 38 % 0.0 in 631.0 W/m2 CLR
12:06 22.2 °F 6.0 °F 1026.0 in West 18.5 mph 18.5 mph 35 % 0.0 in 664.0 W/m2 CLR
12:11 22.2 °F 6.4 °F 1026.0 in NNW 14.8 mph 14.8 mph 36 % 0.0 in 721.0 W/m2 CLR
12:16 22.4 °F 7.4 °F 1026.0 in NW 13.0 mph 13.0 mph 38 % 0.0 in 707.0 W/m2 CLR
12:21 22.8 °F 7.3 °F 1026.0 in NNW 9.3 mph 9.3 mph 37 % 0.0 in 717.0 W/m2 CLR
12:26 22.9 °F 7.1 °F 1025.6 in WNW 18.5 mph 18.5 mph 36 % 0.0 in 724.0 W/m2 CLR
12:31 23.0 °F 7.5 °F 1025.6 in WNW 24.1 mph 24.1 mph 37 % 0.0 in 715.0 W/m2 CLR
12:36 22.9 °F 7.4 °F 1026.0 in NW 24.1 mph 24.1 mph 37 % 0.0 in 714.0 W/m2 CLR
12:41 22.9 °F 7.4 °F 1025.6 in NW 18.5 mph 18.5 mph 37 % 0.0 in 728.0 W/m2 CLR
12:46 23.1 °F 8.0 °F 1025.6 in NW 9.3 mph 9.3 mph 38 % 0.0 in 737.0 W/m2 CLR
12:51 23.2 °F 8.5 °F 1025.6 in NNW 18.5 mph 18.5 mph 39 % 0.0 in 742.0 W/m2 CLR
12:56 23.2 °F 8.9 °F 1025.6 in NNW 14.8 mph 14.8 mph 40 % 0.0 in 756.0 W/m2 CLR
13:01 23.3 °F 8.6 °F 1025.3 in NW 9.3 mph 9.3 mph 39 % 0.0 in 691.0 W/m2 CLR
13:06 23.4 °F 8.3 °F 1025.3 in North 16.7 mph 16.7 mph 38 % 0.0 in 719.0 W/m2 CLR
13:11 23.6 °F 8.8 °F 1025.3 in North 13.0 mph 13.0 mph 39 % 0.0 in 684.0 W/m2 CLR
13:16 23.6 °F 8.4 °F 1025.3 in NNW 25.9 mph 25.9 mph 38 % 0.0 in 737.0 W/m2 CLR
13:21 23.3 °F 8.2 °F 1025.3 in NW 25.7 mph 25.7 mph 38 % 0.0 in 624.0 W/m2 CLR
13:26 23.2 °F 8.1 °F 1025.3 in NNW 20.4 mph 20.4 mph 38 % 0.0 in 686.0 W/m2 CLR
13:31 23.4 °F 8.7 °F 1024.9 in NW 19.3 mph 19.3 mph 39 % 0.0 in 638.0 W/m2 CLR
13:36 23.4 °F 7.9 °F 1024.9 in NW 24.1 mph 24.1 mph 37 % 0.0 in 744.0 W/m2 CLR
13:41 23.6 °F 8.0 °F 1024.9 in NW 20.4 mph 20.4 mph 37 % 0.0 in 712.0 W/m2 CLR
13:46 23.6 °F 8.1 °F 1024.9 in NNW 20.4 mph 20.4 mph 37 % 0.0 in 719.0 W/m2 CLR
13:51 23.7 °F 7.7 °F 1024.6 in NNW 22.2 mph 22.2 mph 36 % 0.0 in 742.0 W/m2 CLR
13:56 23.9 °F 8.3 °F 1024.6 in NNW 18.5 mph 18.5 mph 37 % 0.0 in 721.0 W/m2 CLR
14:01 24.2 °F 7.3 °F 1024.6 in NW 11.1 mph 11.1 mph 34 % 0.0 in 747.0 W/m2 CLR
14:06 24.6 °F 8.6 °F 1024.6 in NNW 13.0 mph 13.0 mph 36 % 0.0 in 698.0 W/m2 CLR
14:11 24.8 °F 7.8 °F 1024.3 in NNW 16.7 mph 16.7 mph 34 % 0.0 in 663.0 W/m2 CLR
14:16 24.8 °F 6.9 °F 1024.3 in WNW 22.2 mph 22.2 mph 32 % 0.0 in 589.0 W/m2 CLR
14:21 24.5 °F 6.7 °F 1024.3 in WNW 18.5 mph 18.5 mph 32 % 0.0 in 638.0 W/m2 CLR
14:26 24.6 °F 7.7 °F 1024.3 in NNW 18.5 mph 18.5 mph 34 % 0.0 in 673.0 W/m2 CLR
14:31 24.7 °F 8.2 °F 1023.9 in West 9.3 mph 9.3 mph 35 % 0.0 in 670.0 W/m2 CLR
14:36 24.8 °F 6.6 °F 1023.9 in NNW 9.3 mph 9.3 mph 31 % 0.0 in 703.0 W/m2 CLR
14:41 25.1 °F 7.7 °F 1023.9 in NNW 11.1 mph 11.1 mph 33 % 0.0 in 656.0 W/m2 CLR
14:46 25.2 °F 6.8 °F 1023.9 in NNW 9.3 mph 9.3 mph 31 % 0.0 in 671.0 W/m2 CLR
14:51 25.2 °F 6.3 °F 1023.6 in NNW 9.3 mph 9.3 mph 30 % 0.0 in 666.0 W/m2 CLR
14:56 25.3 °F 7.4 °F 1023.6 in WNW 8.0 mph 8.0 mph 32 % 0.0 in 647.0 W/m2 CLR
15:01 25.6 °F 6.2 °F 1023.6 in NW 9.3 mph 9.3 mph 29 % 0.0 in 605.0 W/m2 CLR
15:06 25.8 °F 6.4 °F 1023.6 in NW 1.9 mph   29 % 0.0 in 548.0 W/m2 CLR
15:11 25.9 °F 5.5 °F 1023.6 in NW 14.5 mph 14.5 mph 27 % 0.0 in 566.0 W/m2 CLR
15:16 25.9 °F 6.5 °F 1023.2 in NNW 20.9 mph 20.9 mph 29 % 0.0 in 629.0 W/m2 CLR
15:21 25.9 °F 6.0 °F 1023.2 in NW 18.5 mph 18.5 mph 28 % 0.0 in 570.0 W/m2 CLR
15:26 26.0 °F 6.6 °F 1023.2 in NW 13.0 mph 13.0 mph 29 % 0.0 in 559.0 W/m2 CLR
15:31 26.1 °F 5.7 °F 1023.2 in NNW 22.2 mph 22.2 mph 27 % 0.0 in 571.0 W/m2 CLR
15:36 26.1 °F 5.1 °F 1023.2 in NNW 24.1 mph 24.1 mph 26 % 0.0 in 578.0 W/m2 CLR
15:41 25.9 °F 5.5 °F 1023.2 in NNW 22.2 mph 22.2 mph 27 % 0.0 in 589.0 W/m2 CLR
15:46 26.1 °F 6.1 °F 1023.2 in NW 18.5 mph 18.5 mph 28 % 0.0 in 519.0 W/m2 CLR
15:51 26.1 °F 5.7 °F 1023.2 in NW 18.5 mph 18.5 mph 27 % 0.0 in 543.0 W/m2 CLR
15:56 26.1 °F 6.2 °F 1023.2 in NNE 14.8 mph 14.8 mph 28 % 0.0 in 497.0 W/m2 CLR
16:01 26.1 °F 7.2 °F 1023.2 in North 18.5 mph 18.5 mph 30 % 0.0 in 547.0 W/m2 CLR
16:06 26.1 °F 6.6 °F 1022.9 in NNW 13.0 mph 13.0 mph 29 % 0.0 in 489.0 W/m2 CLR
16:11 26.1 °F 6.2 °F 1022.9 in NNW 14.8 mph 14.8 mph 28 % 0.0 in 392.0 W/m2 CLR
16:16 26.1 °F 6.6 °F 1022.9 in NW 11.1 mph 11.1 mph 29 % 0.0 in 403.0 W/m2 CLR
16:21 25.9 °F 6.5 °F 1022.9 in NW 7.4 mph 7.4 mph 29 % 0.0 in 325.0 W/m2 CLR
16:26 25.9 °F 7.0 °F 1022.9 in NW 3.7 mph 3.7 mph 30 % 0.0 in 445.0 W/m2 CLR
16:31 26.1 °F 7.2 °F 1022.9 in North 3.7 mph 3.7 mph 30 % 0.0 in 436.0 W/m2 CLR
16:36 26.1 °F 7.2 °F 1022.6 in NNW 9.7 mph 9.7 mph 30 % 0.0 in 362.0 W/m2 CLR
16:41 25.9 °F 6.6 °F 1022.6 in North 9.3 mph 9.3 mph 29 % 0.0 in 387.0 W/m2 CLR
16:46 25.9 °F 7.1 °F 1022.6 in WNW 8.0 mph 8.0 mph 30 % 0.0 in 343.0 W/m2 CLR
16:51 26.0 °F 7.1 °F 1022.6 in WNW 7.4 mph 7.4 mph 30 % 0.0 in 350.0 W/m2 CLR
16:56 26.1 °F 7.7 °F 1022.6 in North 5.6 mph 5.6 mph 31 % 0.0 in 364.0 W/m2 CLR
17:01 26.2 °F 7.7 °F 1022.6 in Calm     31 % 0.0 in 334.0 W/m2 CLR
17:07 26.3 °F 8.3 °F 1022.6 in Calm   0.3 mph 32 % 0.0 in 279.0 W/m2 CLR
17:12 26.3 °F 7.8 °F 1022.6 in Calm     31 % 0.0 in 304.0 W/m2 CLR
17:17 26.3 °F 8.3 °F 1022.6 in Calm     32 % 0.0 in 255.0 W/m2 CLR
17:22 26.4 °F 8.4 °F 1022.2 in Calm     32 % 0.0 in 294.0 W/m2 CLR
17:27 26.5 °F 8.9 °F 1022.2 in Calm     33 % 0.0 in 223.0 W/m2 CLR
17:32 26.5 °F 8.9 °F 1022.2 in North 3.7 mph 3.7 mph 33 % 0.0 in 230.0 W/m2 CLR
17:37 26.2 °F 8.2 °F 1022.2 in NW 5.6 mph 5.6 mph 32 % 0.0 in 258.0 W/m2 CLR
17:42 26.1 °F 8.1 °F 1022.2 in Calm     32 % 0.0 in 234.0 W/m2 CLR
17:47 26.2 °F 8.6 °F 1022.2 in NNW 8.0 mph 8.0 mph 33 % 0.0 in 199.0 W/m2 CLR
17:52 26.1 °F 8.5 °F 1022.2 in WNW 5.6 mph   33 % 0.0 in 171.0 W/m2 CLR
17:57 26.0 °F 8.5 °F 1022.6 in WNW 5.6 mph 5.6 mph 33 % 0.0 in 160.0 W/m2 CLR
18:02 25.8 °F 8.8 °F 1022.2 in WNW 1.6 mph 1.6 mph 34 % 0.0 in 90.0 W/m2 CLR
18:07 25.6 °F 8.6 °F 1022.2 in NW 3.7 mph   34 % 0.0 in 118.0 W/m2 CLR
18:12 25.6 °F 8.6 °F 1022.2 in Calm     34 % 0.0 in 90.0 W/m2 CLR
18:17 25.4 °F 8.4 °F 1022.2 in Calm     34 % 0.0 in 70.0 W/m2 FEW
18:19 25.4 °F 9.7 °F 1022.2 in Calm     37 % 0.0 in 77.0 W/m2 FEW
18:24 25.2 °F 9.1 °F 1022.6 in WNW 5.6 mph 5.6 mph 36 % 0.0 in 63.0 W/m2 SCT
18:29 24.9 °F 9.2 °F 1022.6 in Calm     37 % 0.0 in 49.0 W/m2 SCT
18:34 24.5 °F 8.8 °F 1022.6 in Calm     37 % 0.0 in 35.0 W/m2 BKN
18:39 24.1 °F 8.9 °F 1022.6 in Calm     38 % 0.0 in 23.0 W/m2 BKN
18:44 23.4 °F 8.3 °F 1022.6 in Calm     38 % 0.0 in 21.0 W/m2 BKN
18:49 22.9 °F 7.9 °F 1022.6 in Calm     38 % 0.0 in 16.0 W/m2 BKN
18:54 22.8 °F 8.2 °F 1022.6 in Calm     39 % 0.0 in 12.0 W/m2 BKN
18:55 22.8 °F 8.2 °F 1022.6 in Calm     39 % 0.0 in 12.0 W/m2 BKN
19:00 22.4 °F 8.5 °F 1022.6 in Calm     41 % 0.0 in 9.0 W/m2 BKN
19:05 21.6 °F 8.8 °F 1022.6 in Calm     44 % 0.0 in 7.0 W/m2 CLR
19:10 21.4 °F 8.6 °F 1022.6 in Calm     44 % 0.0 in 0.0 W/m2 CLR
19:15 20.9 °F 8.5 °F 1022.6 in Calm     45 % 0.0 in 0.0 W/m2 CLR
19:20 20.7 °F 8.6 °F 1022.6 in Calm     46 % 0.0 in 0.0 W/m2 CLR
19:25 20.3 °F 8.9 °F 1022.6 in Calm     48 % 0.0 in 0.0 W/m2 CLR
19:30 19.9 °F 9.2 °F 1022.9 in Calm     50 % 0.0 in 0.0 W/m2 CLR
19:32 19.8 °F 9.1 °F 1022.9 in Calm     50 % 0.0 in 0.0 W/m2 CLR
19:37 19.6 °F 9.2 °F 1022.9 in Calm     51 % 0.0 in 0.0 W/m2 CLR
19:39 19.4 °F 9.1 °F 1022.9 in Calm     51 % 0.0 in 0.0 W/m2 CLR
19:40 19.4 °F 9.0 °F 1022.6 in Calm     51 % 0.0 in 0.0 W/m2 CLR
19:42 19.1 °F 9.3 °F 1022.9 in Calm     53 % 0.0 in 0.0 W/m2 CLR
19:44 18.9 °F 9.2 °F 1022.9 in Calm     53 % 0.0 in 0.0 W/m2 CLR
19:49 18.5 °F 9.3 °F 1022.9 in Calm     55 % 0.0 in 0.0 W/m2 CLR
19:50 18.4 °F 9.2 °F 1022.9 in Calm     55 % 0.0 in 0.0 W/m2 CLR
19:55 17.9 °F 9.0 °F 1022.9 in Calm     56 % 0.0 in 0.0 W/m2 CLR
20:00 17.6 °F 8.7 °F 1022.9 in Calm     56 % 0.0 in 0.0 W/m2 CLR
20:05 17.3 °F 8.7 °F 1022.9 in Calm     57 % 0.0 in 0.0 W/m2 CLR
20:10 17.0 °F 8.9 °F 1022.9 in Calm     59 % 0.0 in 0.0 W/m2 CLR
20:15 16.7 °F 8.9 °F 1023.2 in Calm     60 % 0.0 in 0.0 W/m2 CLR
20:20 16.3 °F 8.8 °F 1023.2 in Calm     61 % 0.0 in 0.0 W/m2 CLR
20:25 16.2 °F 8.9 °F 1023.2 in Calm     62 % 0.0 in 0.0 W/m2 CLR
20:30 16.0 °F 8.7 °F 1023.2 in Calm     62 % 0.0 in 0.0 W/m2 CLR
20:35 16.1 °F 8.8 °F 1023.2 in Calm     62 % 0.0 in 0.0 W/m2 CLR
20:40 16.1 °F 8.6 °F 1023.2 in Calm     61 % 0.0 in 0.0 W/m2 CLR
20:45 16.1 °F 8.3 °F 1023.2 in WSW 1.9 mph 1.9 mph 60 % 0.0 in 0.0 W/m2 CLR
20:50 16.2 °F 8.4 °F 1023.2 in Calm     60 % 0.0 in 0.0 W/m2 CLR
20:55 16.0 °F 8.5 °F 1023.2 in Calm     61 % 0.0 in 0.0 W/m2 CLR
21:00 15.6 °F 8.3 °F 1023.2 in Calm     62 % 0.0 in 0.0 W/m2 CLR
21:05 15.4 °F 8.4 °F 1023.2 in Calm     63 % 0.0 in 0.0 W/m2 CLR
21:10 15.2 °F 8.4 °F 1023.2 in Calm     64 % 0.0 in 0.0 W/m2 CLR
21:15 14.9 °F 8.4 °F 1023.2 in Calm     65 % 0.0 in 0.0 W/m2 CLR
21:20 14.9 °F 8.4 °F 1023.2 in Calm     65 % 0.0 in 0.0 W/m2 CLR
21:25 14.9 °F 8.4 °F 1023.2 in Calm     65 % 0.0 in 0.0 W/m2 CLR
21:30 15.0 °F 8.4 °F 1023.2 in Calm     65 % 0.0 in 0.0 W/m2 CLR
21:35 15.0 °F 8.4 °F 1023.2 in Calm     65 % 0.0 in 0.0 W/m2 CLR
21:40 15.2 °F 8.4 °F 1023.2 in Calm     64 % 0.0 in 0.0 W/m2 CLR
21:45 15.1 °F 8.3 °F 1023.2 in Calm     64 % 0.0 in 0.0 W/m2 CLR
21:50 15.1 °F 8.3 °F 1023.2 in SW 5.6 mph 5.6 mph 64 % 0.0 in 0.0 W/m2 CLR
21:55 15.2 °F 8.4 °F 1023.2 in SSW 3.7 mph 3.7 mph 64 % 0.0 in 0.0 W/m2 CLR
22:00 15.1 °F 8.3 °F 1023.2 in Calm     64 % 0.0 in 0.0 W/m2 CLR
22:05 14.9 °F 8.4 °F 1023.2 in Calm     65 % 0.0 in 0.0 W/m2 CLR
22:10 14.8 °F 8.1 °F 1023.2 in Calm     64 % 0.0 in 0.0 W/m2 CLR
22:15 14.9 °F 8.1 °F 1023.2 in Calm     64 % 0.0 in 0.0 W/m2 CLR
22:20 14.6 °F 8.1 °F 1023.2 in Calm     65 % 0.0 in 0.0 W/m2 CLR
22:25 14.4 °F 8.1 °F 1023.2 in Calm     66 % 0.0 in 0.0 W/m2 CLR
22:30 14.4 °F 7.9 °F 1023.6 in Calm     65 % 0.0 in 0.0 W/m2 CLR
22:36 14.4 °F 8.1 °F 1023.6 in Calm     66 % 0.0 in 0.0 W/m2 CLR
22:41 14.3 °F 8.0 °F 1023.2 in Calm     66 % 0.0 in 0.0 W/m2 CLR
22:46 14.0 °F 7.9 °F 1023.2 in Calm     67 % 0.0 in 0.0 W/m2 CLR
22:51 13.9 °F 7.8 °F 1023.2 in Calm     67 % 0.0 in 0.0 W/m2 CLR
22:56 13.9 °F 7.9 °F 1023.2 in Calm     67 % 0.0 in 0.0 W/m2 CLR
23:01 13.8 °F 7.8 °F 1023.2 in Calm     67 % 0.0 in 0.0 W/m2 CLR
23:06 13.9 °F 7.8 °F 1023.2 in Calm     67 % 0.0 in 0.0 W/m2 CLR
23:11 13.9 °F 7.8 °F 1023.2 in Calm     67 % 0.0 in 0.0 W/m2 CLR
23:16 13.8 °F 7.8 °F 1023.2 in Calm     67 % 0.0 in 0.0 W/m2 CLR
23:21 13.6 °F 7.8 °F 1023.2 in Calm     68 % 0.0 in 0.0 W/m2 CLR
23:26 13.2 °F 7.7 °F 1023.2 in Calm     69 % 0.0 in 0.0 W/m2 CLR
23:31 12.9 °F 7.6 °F 1023.2 in Calm     70 % 0.0 in 0.0 W/m2 CLR
23:36 12.6 °F 7.3 °F 1023.2 in Calm     70 % 0.0 in 0.0 W/m2 CLR
23:41 12.7 °F 7.2 °F 1023.2 in West 5.6 mph   69 % 0.0 in 0.0 W/m2 CLR
23:46 12.8 °F 7.3 °F 1023.6 in Calm     69 % 0.0 in 0.0 W/m2 CLR
23:51 12.8 °F 7.2 °F 1023.6 in Calm     69 % 0.0 in 0.0 W/m2 CLR
23:56 12.8 °F 7.1 °F 1023.6 in Calm     68 % 0.0 in 0.0 W/m2 CLR
Lo Temps de Massalio
Compliments of Weather Underground - 1.25 mb